TimeEST,TemperatureF,Dew PointF,Humidity,Sea Level PressureIn,VisibilityMPH,Wind Direction,Wind SpeedMPH,Gust SpeedMPH,PrecipitationIn,Events,Conditions,WindDirDegrees,DateUTC
12:56 AM,51.1,50.0,96,29.89,3.0,ENE,8.1,-,0.14,Rain,Heavy Rain,60,2013-02-13 05:56:00
1:56 AM,50.0,48.0,93,29.86,5.0,ENE,9.2,-,0.19,Rain,Light Rain,60,2013-02-13 06:56:00
2:56 AM,50.0,48.0,93,29.83,10.0,ESE,8.1,-,0.01,Rain,Light Rain,110,2013-02-13 07:56:00
3:27 AM,50.0,48.2,94,29.79,10.0,East,8.1,-,0.05,Rain,Light Rain,80,2013-02-13 08:27:00
3:56 AM,48.9,48.0,97,29.78,7.0,East,5.8,-,0.05,,Overcast,80,2013-02-13 08:56:00
4:56 AM,50.0,48.0,93,29.78,10.0,ESE,6.9,-,N/A,,Overcast,120,2013-02-13 09:56:00
5:56 AM,51.1,50.0,96,29.78,7.0,North,6.9,-,N/A,,Overcast,350,2013-02-13 10:56:00
6:03 AM,51.8,50.0,94,29.78,6.0,NNW,8.1,-,N/A,,Overcast,340,2013-02-13 11:03:00
6:56 AM,50.0,50.0,100,29.79,5.0,NNE,3.5,-,N/A,,Overcast,20,2013-02-13 11:56:00
7:43 AM,51.8,50.0,94,29.78,2.0,Calm,Calm,-,N/A,,Overcast,0,2013-02-13 12:43:00
7:56 AM,51.1,50.0,96,29.78,2.5,Calm,Calm,-,N/A,,Overcast,0,2013-02-13 12:56:00
8:15 AM,51.8,51.8,100,29.79,0.5,Calm,Calm,-,N/A,,Overcast,0,2013-02-13 13:15:00
8:28 AM,51.8,51.8,100,29.79,0.2,Calm,Calm,-,N/A,Fog,Fog,0,2013-02-13 13:28:00
8:56 AM,53.1,52.0,96,29.81,0.2,Calm,Calm,-,N/A,Fog,Fog,0,2013-02-13 13:56:00
9:54 AM,57.2,55.4,94,29.81,1.5,West,3.5,-,N/A,,Overcast,270,2013-02-13 14:54:00
9:56 AM,57.0,55.9,96,29.81,1.5,West,3.5,-,N/A,,Overcast,270,2013-02-13 14:56:00
10:24 AM,59.0,57.2,94,29.81,10.0,Calm,Calm,-,N/A,,Overcast,0,2013-02-13 15:24:00
10:56 AM,62.1,59.0,90,29.80,10.0,WSW,9.2,-,N/A,,Overcast,240,2013-02-13 15:56:00
11:20 AM,64.4,60.8,88,29.78,10.0,WSW,8.1,-,N/A,,Overcast,240,2013-02-13 16:20:00
11:33 AM,66.2,62.6,88,29.79,10.0,WSW,9.2,-,N/A,,Mostly Cloudy,250,2013-02-13 16:33:00
11:56 AM,70.0,62.1,76,29.77,10.0,WSW,15.0,-,N/A,,Mostly Cloudy,250,2013-02-13 16:56:00
12:34 PM,69.8,62.6,78,29.74,10.0,WSW,12.7,23.0,N/A,,Mostly Cloudy,250,2013-02-13 17:34:00
12:56 PM,72.0,62.1,71,29.74,10.0,WSW,10.4,-,N/A,,Mostly Cloudy,240,2013-02-13 17:56:00
1:56 PM,73.0,62.1,68,29.70,10.0,SW,10.4,-,0.01,,Mostly Cloudy,220,2013-02-13 18:56:00
2:56 PM,75.0,54.0,48,29.72,10.0,West,18.4,32.2,N/A,,Mostly Cloudy,270,2013-02-13 19:56:00
3:56 PM,71.1,52.0,51,29.72,10.0,WNW,12.7,20.7,N/A,,Scattered Clouds,290,2013-02-13 20:56:00
4:56 PM,69.1,46.0,44,29.77,10.0,West,13.8,21.9,N/A,,Mostly Cloudy,280,2013-02-13 21:56:00
5:56 PM,64.0,46.0,52,29.79,10.0,West,12.7,-,0.00,Rain,Light Rain,260,2013-02-13 22:56:00
6:56 PM,63.0,45.0,52,29.80,10.0,WSW,11.5,-,0.00,,Overcast,250,2013-02-13 23:56:00
7:56 PM,62.1,44.1,52,29.80,10.0,WSW,11.5,-,N/A,,Overcast,250,2013-02-14 00:56:00
8:56 PM,57.0,46.9,69,29.83,10.0,West,16.1,32.2,0.00,Rain,Light Rain,280,2013-02-14 01:56:00
9:56 PM,54.0,50.0,86,29.86,10.0,West,10.4,-,0.02,Rain,Light Rain,280,2013-02-14 02:56:00
10:56 PM,53.1,48.0,83,29.88,10.0,West,11.5,18.4,0.00,,Mostly Cloudy,270,2013-02-14 03:56:00
11:56 PM,52.0,46.9,83,29.87,10.0,WNW,9.2,-,N/A,,Mostly Cloudy,290,2013-02-14 04:56:00